Location: Roland
(31.1349°N, 85.4372°W)
Time: 15:27:39
(UTC+00:00)

Transit 2A - Visible Passes

Search period start: 19 April 2021 00:00
Search period end: 29 April 2021 00:00
Orbit: 602 x 957 km, 66.7° (Epoch: 18 April)

Date Brightness Start Highest point End Pass type
(mag) Time Alt. Az. Time Alt. Az. Time Alt. Az.
21 Apr 9.0 10:33:26 10° ESE 10:34:45 11° ESE 10:36:02 10° E visible
24 Apr 7.6 10:30:39 10° S 10:35:04 32° ESE 10:39:11 10° NE visible
25 Apr 8.2 09:57:24 10° SSE 10:00:59 20° ESE 10:04:21 10° ENE visible
26 Apr 8.6 09:25:05 10° SE 09:26:55 12° ESE 09:28:43 10° E visible
27 Apr 5.7 10:30:33 10° SSW 10:35:31 85° WNW 10:40:04 10° NNE visible
28 Apr 6.3 09:56:30 10° S 10:01:22 58° ESE 10:05:50 10° NE visible
